Dewpoint
50 47 41 30 16 15 -0 1 16 10 12 15 16 17 27 36 40 38 57 60 63 67 70 70 70 70 71 70 70 70 70 70 71 71 71 71 71 70 71 71 71 71 70 69 69 69 68 68 68
45 43 34 27 7 -4 -9 12 13 14 15 16 16 20 24 30 46 51 56 62 65 68 69 70 70 70 70 71 70 70 70 71 71 71 71 70 70 70 70 70 70 71 70 69 68 68 69 68 68
46 42 33 23 16 -3 -4 10 13 16 18 15 18 21 27 37 47 52 52 65 67 67 69 69 70 70 70 70 71 71 71 70 70 71 71 71 71 71 70 69 70 70 70 69 68 69 69 68 69
36 38 34 24 12 16 12 12 17 18 19 19 22 21 25 38 48 51 61 66 66 67 68 68 69 70 70 70 71 71 70 70 70 70 71 71 70 70 69 68 69 70 69 69 69 69 68 68 68
36 35 27 25 24 23 19 18 19 20 21 22 24 24 25 36 51 57 61 65 63 67 68 68 68 69 70 70 71 71 70 70 69 70 70 70 70 69 67 67 68 69 69 69 69 68 68 68 68
30 32 25 20 23 23 22 23 22 24 23 24 24 24 24 37 44 54 61 63 64 66 67 67 68 68 69 70 70 70 69 69 69 69 69 69 69 68 66 67 68 68 66 66 67 68 67 67 67
29 30 26 25 23 26 26 25 24 23 24 25 25 24 23 30 45 54 59 62 64 65 66 67 67 68 69 69 69 69 69 69 69 68 68 69 69 68 66 66 67 66 65 64 66 67 67 66 66
38 34 31 30 25 26 28 26 27 25 25 27 26 23 24 31 53 59 61 62 63 65 66 66 67 68 68 69 69 69 69 69 69 68 68 68 67 67 65 65 65 65 65 64 66 66 66 65 65
30 27 28 28 26 27 27 26 27 27 26 27 26 26 27 46 61 60 59 61 62 64 65 65 65 67 67 68 68 68 68 69 68 67 67 67 66 66 65 64 65 65 65 64 66 66 65 64 64
23 25 27 27 27 25 25 22 21 22 22 23 24 27 27 49 56 57 58 57 60 61 63 64 65 66 66 67 67 67 68 68 68 67 66 65 64 64 64 62 64 64 65 65 65 66 65 64 64
23 20 22 17 19 14 12 12 17 16 16 15 14 22 19 24 45 55 57 59 60 61 62 63 63 64 65 66 66 66 67 67 67 66 65 64 63 64 63 62 64 64 64 65 65 65 64 63 63
12 11 11 12 13 11 6 10 9 8 8 14 18 15 19 24 26 45 53 55 60 61 62 63 64 63 64 65 65 66 66 66 66 66 64 63 62 62 62 61 61 62 63 64 64 64 64 63 63
12 10 13 14 14 8 7 4 4 5 8 13 16 19 22 24 24 27 37 52 56 59 62 63 64 63 64 64 64 65 65 65 65 65 64 62 61 61 61 61 61 61 62 64 63 63 63 62 62
15 16 16 13 8 6 8 8 7 6 7 9 9 9 10 16 21 24 26 27 47 56 60 62 63 64 64 64 64 63 64 64 64 65 64 62 61 60 61 61 61 62 62 63 62 61 61 62 62
19 14 9 9 9 8 10 1 3 10 11 11 10 10 9 6 8 17 24 27 28 40 57 62 63 64 64 64 64 64 63 64 63 63 64 62 61 60 61 61 62 62 62 62 61 61 61 61 62
10 9 6 10 10 10 8 2 7 9 8 8 11 10 10 11 10 7 14 24 27 30 42 61 63 63 64 64 64 63 63 63 63 63 64 63 62 61 61 61 62 62 61 61 60 60 60 60 61
10 5 8 9 10 8 6 2 1 8 11 11 12 12 11 11 9 10 7 12 19 26 31 54 64 63 63 64 64 64 63 63 63 63 63 64 63 62 61 61 62 62 60 60 60 59 59 59 60
7 8 9 9 9 8 7 8 10 12 14 14 14 13 12 11 10 8 9 8 12 23 30 45 63 64 64 64 64 64 64 63 63 63 63 63 64 63 62 62 61 62 61 60 60 59 58 58 59
10 9 8 7 8 10 10 12 13 12 13 13 14 15 14 14 13 11 9 8 6 12 25 41 61 64 64 64 63 62 62 62 63 63 63 63 64 63 63 62 61 62 61 60 60 58 58 57 59
9 9 7 9 11 12 11 10 10 12 13 14 14 14 14 13 13 13 10 8 11 16 24 30 57 63 65 64 64 63 63 63 63 63 63 63 64 63 63 62 61 62 61 60 59 58 57 57 59
9 8 9 10 12 11 10 8 7 11 15 16 16 16 16 15 14 14 14 11 9 10 18 24 35 61 65 64 64 64 64 64 63 63 63 63 64 63 64 63 62 62 62 60 59 58 57 56 58
7 10 13 13 11 8 14 8 11 13 14 16 22 25 16 15 14 14 14 13 8 5 13 25 28 45 63 64 64 63 63 62 63 63 63 63 64 64 64 63 62 62 62 61 60 59 58 57 56
9 13 13 12 14 16 14 14 12 14 15 15 31 36 33 16 16 14 13 12 8 6 11 22 27 39 55 63 64 63 62 62 63 63 63 63 64 64 64 63 62 62 62 61 60 59 59 58 57
15 15 16 20 18 10 13 13 11 14 15 23 35 38 41 42 15 14 13 11 6 7 19 27 29 39 55 63 64 63 62 62 62 63 63 62 63 64 64 64 63 63 62 62 60 60 59 59 58
15 17 8 5 6 4 10 15 15 20 18 32 34 37 38 43 46 43 41 39 7 20 32 40 36 41 55 62 64 63 62 62 62 62 62 62 63 64 64 63 63 62 62 62 61 60 60 59 58
21 20 13 6 8 9 16 16 16 16 26 32 37 37 42 43 48 49 48 51 52 52 52 52 52 50 57 63 64 64 63 63 62 62 62 62 63 63 64 63 63 63 62 62 61 61 60 60 59
15 13 18 16 18 17 14 14 14 30 33 37 38 37 40 45 47 46 47 48 50 51 54 58 60 61 63 64 64 64 63 63 62 62 62 62 62 62 63 63 62 62 62 62 62 61 60 60 59
17 17 14 20 13 9 10 11 18 28 32 34 37 40 41 42 43 44 44 45 46 47 49 52 55 56 59 61 63 63 63 62 62 62 62 62 62 62 62 62 62 62 62 62 61 61 60 60 59
15 14 15 20 20 15 14 12 25 28 31 34 38 40 40 39 40 42 41 44 43 43 44 45 48 51 53 57 60 61 61 61 61 61 61 61 61 61 61 61 61 61 61 61 60 60 60 59 59
17 13 18 19 16 21 21 17 24 24 31 34 37 38 38 37 37 38 38 41 41 40 40 41 43 45 47 50 53 55 58 60 60 60 60 60 60 60 60 60 60 60 60 60 60 59 59 59 58
Wind_Speed
2 2 3 6 2 4 4 4 3 5 5 10 18 7 9 4 9 5 5 8 19 21 19 19 19 18 18 19 19 18 18 18 19 19 19 20 20 20 19 18 18 19 18 17 17 16 16 17 18
1 2 6 4 5 2 7 4 6 6 21 22 15 20 9 10 4 3 13 12 23 25 20 19 21 20 20 20 20 19 19 19 19 20 19 19 19 18 18 18 18 17 17 16 16 17 16 18 19
1 4 4 5 5 8 6 2 7 17 15 8 14 9 8 8 4 8 2 16 20 22 21 20 23 21 21 21 21 20 19 20 19 19 19 18 18 17 17 16 16 16 17 16 17 17 17 18 21
2 4 6 2 8 6 8 8 12 19 5 8 12 7 16 7 5 5 16 20 22 21 19 23 26 23 21 20 21 20 20 20 19 18 18 17 17 17 14 14 14 14 14 15 15 14 19 21 21
5 4 4 1 6 6 11 8 8 10 13 14 8 18 31 21 16 3 19 20 27 19 17 20 26 24 21 22 22 22 22 21 20 18 17 16 16 16 15 15 15 14 15 17 16 18 18 21 20
4 4 3 8 8 7 10 7 5 10 10 18 10 19 12 14 18 7 5 16 12 17 16 18 23 25 23 22 23 24 23 22 21 19 18 16 16 16 15 14 15 15 15 18 18 18 18 22 21
5 4 3 3 7 9 8 5 8 9 12 10 7 19 8 21 19 7 4 3 10 8 10 10 12 15 21 23 23 24 24 23 22 21 19 17 17 15 15 13 13 13 14 18 19 19 19 21 23
6 4 3 4 6 9 7 8 8 8 17 7 7 6 20 21 13 8 9 6 6 9 10 12 11 12 12 16 22 24 24 24 22 21 19 18 17 16 14 12 12 13 13 19 21 21 20 20 20
4 2 5 5 4 4 14 17 5 5 10 8 5 13 13 12 5 5 7 2 8 6 14 14 15 15 12 13 17 21 23 24 22 20 20 18 14 14 13 12 14 14 13 16 18 24 23 21 19
3 3 5 5 4 8 11 21 23 8 15 14 16 10 11 6 5 6 4 8 9 8 8 9 13 13 14 11 13 13 15 16 16 16 17 15 15 13 12 13 14 14 13 13 15 20 22 16 13
2 4 3 5 7 5 11 19 8 16 6 15 25 20 23 17 9 11 9 11 11 9 8 10 10 11 14 13 12 11 11 13 13 16 15 15 14 12 12 12 10 12 11 8 11 13 13 13 11
2 2 1 6 7 13 16 8 14 14 19 16 17 25 20 20 14 14 18 19 14 13 13 12 11 12 12 11 14 12 14 14 13 14 16 15 14 14 14 14 12 13 9 8 9 9 11 13 11
3 4 9 9 19 15 13 13 14 21 19 15 18 19 20 22 23 20 19 18 20 20 17 19 16 14 14 13 12 13 12 15 15 15 15 15 15 16 15 13 14 13 10 10 9 9 9 13 13
2 8 13 5 12 8 20 19 6 5 20 25 22 22 23 23 23 24 23 22 17 22 24 27 24 19 17 17 18 17 15 14 15 15 14 16 14 17 15 14 13 13 12 9 9 10 10 10 12
4 6 4 11 16 9 25 2 8 19 20 27 31 26 25 24 23 25 23 25 24 21 25 25 31 32 24 21 18 17 17 17 16 15 16 15 15 17 16 15 14 13 12 13 10 8 8 10 9
6 5 10 13 16 7 17 21 5 16 32 35 27 31 31 29 25 24 24 25 25 23 21 25 24 28 31 27 20 17 17 18 17 16 16 17 16 16 16 15 15 13 13 12 12 11 11 10 9
11 9 14 9 17 14 10 39 30 25 24 35 33 32 30 36 33 27 20 23 27 28 26 20 24 28 31 27 22 19 17 18 16 17 17 19 17 17 16 15 14 16 13 13 13 10 12 13 11
9 8 8 17 6 17 19 37 37 38 23 31 38 38 35 34 41 29 29 22 25 23 25 24 24 27 30 24 20 16 16 17 17 18 19 20 19 19 17 14 15 16 13 13 14 15 9 9 14
5 9 21 18 15 15 15 34 37 35 33 32 35 38 39 37 41 32 28 25 24 27 25 25 24 27 24 23 24 23 26 23 21 21 20 21 20 21 19 15 16 17 17 15 16 11 13 6 12
10 16 20 16 1 18 23 40 33 27 22 29 32 32 36 38 38 36 27 22 23 27 28 21 25 25 28 25 28 22 25 21 19 17 19 21 22 23 21 19 18 18 16 16 17 17 9 4 17
10 10 11 21 31 12 13 22 21 38 23 28 31 31 32 36 38 38 36 29 27 28 30 27 25 27 30 30 22 12 17 12 15 19 20 25 24 23 22 20 19 19 18 19 19 19 19 14 13
10 3 13 20 16 17 12 19 22 24 32 32 37 43 36 32 34 33 34 32 31 30 28 28 27 29 30 29 27 29 31 27 22 28 24 23 25 23 22 21 19 19 18 18 19 17 17 16 16
8 15 18 23 20 8 2 4 20 31 28 25 35 53 44 36 31 32 32 32 32 28 27 26 25 22 23 29 31 31 30 27 22 21 23 24 24 23 22 23 22 22 19 19 21 19 18 17 17
11 11 15 1 1 4 2 5 33 15 20 29 30 39 45 35 26 26 29 31 31 23 21 24 24 23 23 28 31 34 32 27 21 23 23 23 23 22 22 22 21 20 19 20 20 21 22 20 18
15 12 9 9 6 9 10 18 17 24 24 29 31 34 41 38 20 16 15 17 22 19 23 23 27 22 22 27 29 31 29 27 29 28 26 25 22 20 23 22 21 20 21 20 18 19 19 19 19
4 3 4 5 8 20 24 8 10 25 23 30 25 31 44 32 21 21 17 15 14 4 9 14 14 18 21 24 27 24 22 20 20 24 24 24 23 23 21 23 21 21 22 20 20 18 18 17 18
1 2 3 6 15 8 9 10 20 28 33 30 28 29 31 30 25 27 28 24 22 19 15 8 16 11 16 19 20 21 19 18 19 21 23 24 23 21 22 24 22 21 20 21 20 19 19 17 18
1 2 4 3 6 10 8 14 11 34 36 39 33 29 28 31 30 28 31 28 22 24 20 20 25 24 16 3 15 18 16 19 17 18 22 24 21 20 21 21 20 19 20 19 19 17 17 18 16
1 2 2 3 4 5 11 16 10 28 32 37 34 27 25 31 32 28 33 27 20 26 27 27 31 26 17 12 10 12 16 15 12 10 11 15 18 18 20 21 20 19 18 18 19 16 15 19 17
5 3 3 3 4 9 9 14 19 38 34 32 25 25 26 26 32 32 33 29 22 26 26 28 27 23 25 20 21 19 14 10 4 8 8 11 15 16 18 17 19 19 19 18 18 17 16 18 17
Wind_Direction
72 91 88 44 56 42 269 264 277 325 13 327 298 286 257 252 176 220 6 163 127 141 148 157 161 162 158 151 145 140 136 133 129 129 127 130 134 140 144 148 148 147 147 147 151 150 146 127 127
105 106 53 83 94 230 273 290 303 354 319 307 310 329 291 264 225 266 135 176 146 147 153 160 169 170 165 158 152 149 145 137 136 136 138 140 142 145 148 153 153 150 146 146 147 148 141 131 132
357 45 85 102 124 214 246 217 303 319 321 345 337 341 335 315 300 187 235 149 142 147 155 166 174 173 167 163 159 155 149 143 143 142 143 145 145 143 144 148 150 151 149 149 153 151 140 131 127
120 46 58 151 214 239 231 272 319 333 345 31 342 21 325 298 282 218 152 149 147 156 165 173 172 173 170 171 163 156 150 148 145 144 146 147 145 142 139 140 138 147 151 149 151 146 136 134 133
51 72 109 182 251 266 256 277 305 328 318 342 8 330 329 352 337 224 162 159 160 164 173 178 173 170 172 175 165 157 154 151 148 150 148 149 144 141 141 144 141 137 151 147 147 146 145 133 131
72 80 138 226 247 256 278 273 305 323 319 334 360 343 312 340 8 347 267 158 151 169 177 180 179 170 175 177 166 160 157 154 153 156 154 153 147 147 149 144 149 147 154 150 145 140 140 131 131
125 118 204 183 268 289 282 315 314 324 323 324 335 325 292 334 346 131 349 358 130 155 167 177 185 183 181 175 168 163 160 157 158 160 159 158 153 156 159 144 145 148 156 149 146 140 138 134 135
112 109 144 221 245 272 288 314 290 299 311 294 352 316 320 322 342 117 107 353 141 149 166 170 182 193 194 180 171 166 161 158 161 162 160 163 158 162 167 153 149 152 156 156 148 140 140 137 142
117 112 213 233 201 255 305 310 283 308 276 308 281 312 297 314 86 82 135 164 315 199 176 175 191 197 192 182 176 168 162 160 161 164 163 158 159 162 164 159 156 158 155 156 149 147 149 141 143
151 169 228 213 252 289 298 301 307 317 316 305 304 284 296 286 166 168 234 208 243 269 284 211 198 202 186 183 176 168 161 160 159 165 163 159 161 162 161 156 159 163 158 166 146 146 145 135 137
123 227 193 269 294 341 297 299 308 303 307 300 300 308 308 303 272 203 197 230 232 236 237 231 238 219 191 184 182 166 155 161 164 166 164 161 158 157 160 151 149 158 153 125 126 133 138 143 142
313 254 344 299 295 315 294 282 296 285 278 277 285 295 298 295 293 266 228 210 213 208 220 213 228 225 217 190 187 182 167 171 176 174 167 165 161 161 166 167 158 164 159 143 147 152 154 151 153
210 326 313 294 310 307 293 292 276 290 304 310 298 304 303 294 287 276 258 241 208 206 206 208 200 221 214 199 193 192 191 186 183 178 174 167 167 166 165 170 164 166 161 156 151 157 167 160 160
312 308 312 2 342 354 343 307 288 283 340 345 337 326 317 306 299 290 281 263 226 222 205 193 196 203 208 205 193 191 190 198 189 185 185 173 173 165 167 166 167 167 165 165 175 173 171 165 160
300 324 10 15 360 11 346 360 164 345 343 334 322 322 319 310 309 292 281 271 257 230 217 196 193 188 196 210 203 193 193 190 196 193 185 181 172 171 166 166 168 168 166 178 170 161 157 156 161
2 64 359 331 11 357 21 291 319 318 333 313 306 304 302 295 291 292 296 283 270 258 231 203 196 190 191 196 199 196 198 192 195 195 192 185 177 177 167 170 173 167 172 174 178 168 167 167 175
29 325 322 319 337 347 2 295 300 312 308 299 298 293 288 291 287 279 275 281 281 260 249 225 194 192 194 191 188 193 193 197 191 196 198 190 186 177 178 175 171 166 173 176 173 173 165 176 183
321 315 293 300 283 300 294 277 290 297 294 284 287 288 285 281 277 279 272 264 274 268 248 233 206 198 194 188 180 184 189 202 191 195 198 193 192 186 179 177 171 168 174 175 171 173 157 172 162
283 293 296 289 284 306 275 284 289 292 289 282 271 274 278 276 277 277 271 260 255 264 255 227 204 200 186 185 186 191 199 200 197 197 198 192 190 189 183 180 173 175 183 184 176 166 173 143 140
355 311 304 308 277 312 295 291 295 289 290 291 285 275 270 270 273 274 269 269 253 256 256 235 214 192 191 194 191 194 195 202 200 192 195 198 192 190 184 181 181 181 180 184 179 173 163 143 166
321 284 296 296 312 256 292 296 329 308 312 305 298 284 273 269 265 266 269 263 255 247 246 241 218 201 193 195 189 173 174 154 177 192 194 200 196 190 185 184 182 182 183 184 186 184 175 176 189
318 276 293 290 316 307 49 300 318 311 313 311 330 325 298 276 264 256 258 259 247 237 238 229 225 207 197 188 185 185 186 191 198 199 197 194 191 188 185 183 182 182 187 190 188 188 188 173 183
262 296 281 284 279 282 60 223 285 305 299 321 346 330 312 292 266 257 252 253 243 234 232 226 222 213 198 190 191 192 192 199 193 190 190 192 190 184 186 185 188 187 187 187 186 185 193 188 189
299 277 296 298 192 314 242 1 293 300 315 326 345 326 334 314 274 255 256 257 243 228 211 207 207 207 192 192 195 195 198 187 180 179 185 189 189 182 186 188 190 188 187 185 186 187 191 192 195
355 13 345 352 353 287 301 327 263 287 326 333 334 338 338 340 346 320 298 283 242 212 207 197 192 187 188 191 196 196 197 190 187 183 181 183 182 182 191 184 189 190 186 183 184 183 191 195 198
37 42 69 303 311 297 308 242 287 323 337 335 345 351 348 335 357 2 0 16 32 36 201 194 168 172 183 187 194 192 190 184 187 184 180 185 187 190 182 185 189 189 182 182 186 192 195 197 206
205 21 190 251 257 266 267 299 310 0 347 340 346 343 4 349 4 13 14 20 28 31 21 80 110 98 162 175 171 172 166 166 177 184 180 184 187 187 183 191 189 183 182 179 183 191 194 195 202
63 309 2 307 312 314 294 305 329 349 340 343 340 347 8 359 4 10 12 9 21 36 27 34 66 57 35 111 173 164 165 168 178 181 180 184 182 172 177 187 187 181 182 181 182 189 189 195 204
351 87 31 274 231 277 300 323 28 352 346 339 338 356 15 10 12 9 10 3 14 35 32 34 41 48 23 31 81 123 138 136 142 168 187 182 166 171 175 179 181 177 178 179 183 183 182 197 205
186 139 98 9 293 252 265 292 353 343 337 339 348 1 15 19 16 16 14 356 11 35 32 38 37 31 25 20 42 48 51 76 136 206 187 192 174 174 176 177 176 174 180 178 186 188 191 202 208